OPS 4682 DEB, 38395

Orbit data source: Space-Track

OPS 4682 DEB, 38395 is space debris in LEO originally from a launch on Sat, 03 Apr 1965 UTC launched from the Air Force Western Test Range (AFWTR). Debris objects in space refer to the collection of defunct objects orbiting the Earth. Examples of debris include non-operational satellites, rocket bodies, and fragments generated from explosions, collisions, or faulty payload assembly.

Loading next visibility...
Identifier
38395, 1965-027CY
Orbit
LEO
Country
Flag of USUS
Related business
Manufacturer
Unknown
Mission
Spacecraft
Bus & Motor
Unknown
Mass
Unknown
Launch date (UTC)
1965-04-03 (61 years ago)
Launch vehicle
Unknown
Launch site
Air Force Western Test Range (AFWTR)
Object type
Payload
Rocket body
Debris
Shape & HBR
Unknown shape, 0.1 m
Radar Cross Section
Small (<0.1 m²)

Expand to show TLE details & history
Last TLE update: 4 weeks ago

TLE from 4 weeks ago
0 OPS 4682 DEB
1 38395U 65027CY  25268.53514473  .00000866  00000-0  29177-2 0  9991
2 38395  90.2574  12.1099 0026752 313.8348  46.0562 12.98352287 60647
Epoch: 2025-09-25T12:50Z
TLE epoch observation values (Epoch: 2025-09-25T12:50:36.504Z)
Latitude
-0.00002°
Longitude
174.86292°
Altitude
1,257.26 km
Speed
7.233 km/s
True Right ascension
00h 48m 26s
True Declination
0° 00' 00"
Sunlit
Object was in full shadow at epoch
Visualization orbit readout
Latitude
Unknown
Longitude
Unknown
Altitude
Unknown
Speed
Unknown
Apparent Right ascension
Unknown
Apparent Declination
Unknown
Sunlit
N/A
Visualization observer readout
Local Sidereal Time
18:01:32
Azimuth
Unknown
Elevation
Unknown
Doppler factor
Unknown
Orbital elements
Apogee altitude
1,286.127 km
Perigee altitude
1,245.23 km
Semi-major axis
7,643.816 km
Eccentricity
0.00268
Inclination
90.2574°
RAAN
12.1099°
Arg. of periapsis
313.8348°
True anomaly
46.27744°
Mean anomaly
46.0562°
Eccentric anomaly
46.16677°
Mean motion
3.24771 °/min
Orbital period
110.85 mins
BSTAR
0.0029177
Loading maneuver chart data...
Computing Atmospheric mass density...
Loading historical data...
Loading historical data...
Loading historical data...
Loading historical data...
Loading historical data...
Loading historical data...
Loading historical data...

Documentation

Showing up to 5 results
|